{"data":{"norad_id":61011,"intl_designator":"2024-159A","name":"GEESAT-3 01","alt_names":[],"object_type":"PAYLOAD","status":"ACTIVE","operator":null,"country":"PRC","launch_date":"2024-09-05","launch_site_code":"TAISC","launch_vehicle":null,"mission":null,"orbit_class":"UNKNOWN","rcs_meters":null,"size_class":null,"mass_kg":null,"dimensions":null,"purposes":[],"wikipedia_slug":null,"has_3d_model":false,"image_url":null,"decayed_at":null,"tle_current":{"epoch":"2026-09-22T19:43:13.701504Z","epoch_age_seconds":91176,"freshness":"FRESH","line1":"1 61011U 24159A   26265.82168636  .00001199  00000+0  16755-3 0  9997","line2":"2 61011  50.0021 350.1284 0002816 257.6963 102.3661 14.84497893111185","mean_motion":14.84497893,"eccentricity":0.0002816,"inclination_deg":50.0021,"raan_deg":350.1284,"arg_perigee_deg":257.6963,"mean_anomaly_deg":102.3661,"bstar":0.00016755,"rev_number":11118,"period_min":97.002495375047,"perigee_km":613.19301942589,"apogee_km":617.13164560996,"semimajor_km":6993.2993325179,"source":"CELESTRAK","updated_at":"2026-09-23T09:00:20.765915Z"}}}